DELTA 2 R/B, 40060

Orbit data source: Space-Track

DELTA 2 R/B, 40060 is space debris in HEO originally from a launch on Wed, 02 Jul 2014 UTC launched from the Air Force Western Test Range (AFWTR). Debris objects in space refer to the collection of defunct objects orbiting the Earth. Examples of debris include non-operational satellites, rocket bodies, and fragments generated from explosions, collisions, or faulty payload assembly.

Loading next visibility...
Identifier
40060, 2014-035B
Orbit
HEO
Country
Flag of USUS
Related business
Manufacturer
Boeing/Pueblo
Mission
Spacecraft
Bus & Motor
DELTA/0020, Unknown motor
Mass
~924 kg wet, 924 kg dry
Launch date (UTC)
2014-07-02 (12 years ago)
Launch vehicle
Unknown
Launch site
Air Force Western Test Range (AFWTR)
Object type
Payload
Rocket body
Debris
Shape & HBR
Cyl + Cone, 3.0 m
Radar Cross Section
13.836 m², Large (>1 m²)

Expand to show TLE details & history
Last TLE update: 1 day ago

TLE from 1 day ago
0 DELTA 2 R/B
1 40060U 14035B   26070.40366868  .00000038  00000-0  00000-0 0  9990
2 40060  98.2094  80.0528 3081068 185.0867 170.9715  6.11240613260921
Epoch: 2026-03-11T09:41Z
TLE epoch observation values (Epoch: 2026-03-11T09:41:16.973Z)
Latitude
0.00003°
Longitude
125.66041°
Altitude
10,124.54 km
Speed
4.095 km/s
True Right ascension
05h 20m 11s
True Declination
0° 00' 00"
Sunlit
Object was in daylight at epoch
Visualization orbit readout
Latitude
Unknown
Longitude
Unknown
Altitude
Unknown
Speed
Unknown
Apparent Right ascension
Unknown
Apparent Declination
Unknown
Sunlit
N/A
Visualization observer readout
Local Sidereal Time
17:02:46
Azimuth
Unknown
Elevation
Unknown
Doppler factor
Unknown
Orbital elements
Apogee altitude
10,148.02 km
Perigee altitude
2,362.996 km
Semi-major axis
12,633.645 km
Eccentricity
0.30811
Inclination
98.2094°
RAAN
80.0528°
Arg. of periapsis
185.0867°
True anomaly
174.97466°
Mean anomaly
170.9715°
Eccentric anomaly
173.09411°
Mean motion
1.52845 °/min
Orbital period
235.53 mins
BSTAR
0
Loading maneuver chart data...
Computing Atmospheric mass density...
Loading historical data...
Loading historical data...
Loading historical data...
Loading historical data...
Loading historical data...
Loading historical data...
Loading historical data...
Other satellites on launch #35 in the year 2014 (2014-07-02 UTC)

Documentation

Showing up to 5 results
|